Location: Berlin
(42.3812°N, 71.6370°W)
Time: 23:54:50
(UTC+00:00)

Cosmos 2346 Rocket - Pass Details

Date: 15 November 2025
Orbit: 935 x 979 km, 82.9° (Epoch: 09 December)

Event Time Altitude Azimuth Distance (km) Brightness Sun altitude
Rises 09:53:41 0° 195° (SSW) 3,626 7.4 -19.2°
Reaches altitude 10° 09:56:12 10° 198° (SSW) 2,677 6.7 -18.7°
Maximum altitude 10:02:16 65° 280° (W) 1,040 4.4 -17.6°
Drops below altitude 10° 10:08:19 10° 2° (N) 2,667 6.7 -16.5°
Sets 10:10:50 0° 5° (N) 3,611 7.4 -16.1°
